Find Starlink 5519

NORAD ID: 57223 Int'l Des: 2023-094 Owner: SPXS Country: US Constellation: starlink operational
LEOCIRCULAR

リアルタイム位置

3D地球を読み込み中...

Starlink 5519について

説明を読み込み中...

次回通過

Passes for default location (London). Set your location on the main map for personalized predictions.

高度履歴

Loading altitude history...

軌道要素

1 57223U 23094F 26122.19995032 .00000417 00000-0 25215-4 0 9999
2 57223 43.0029 91.5506 0000984 266.5396 93.5343 15.26743227155268
Epoch: May 2, 2026 • Age: 14 hours

現在のステータス

高度 494.2 km
速度 7.62 km/s
衛星直下点 -33.02°S, 175.94°E
打ち上げ日 Jul 7, 2023
運用期間 2.8 years
タイプ internet

技術仕様

分類 Payload
質量 305.00 kg
乾燥質量 290.00 kg
総質量 305.00 kg
長さ 0.20 m
直径 2.80 m
スパン 9.00 m
形状 Box + pan
製造者 SPXS
バスタイプ Starlink
フェーズステータス In Orbit
所有者/国 SPXS/US

Most Searched